Wind_Speed
8 7 5 3 2 3 1 1 1 2 3 3 1 1 1 2 1 1 1 1 2 2 2 5 8 4 2 4 6 4 2 3 3 3 2 2 10 21 16 13 16 14 14 14 12 12 13 12 10 10 10 9 9 8 9 8 9 10 9 9 10 10 11 11 10 11 11 12 13 13 13 13 12 12 12 12 14 14 13 12 14 15 14 15 15 16 16 16 16 15 16 16 15 15 15 16 16
7 6 4 2 2 2 0 1 3 2 3 3 1 0 2 2 0 2 4 4 3 2 3 6 7 4 4 5 7 3 3 3 1 3 1 5 14 16 14 16 17 15 14 13 13 13 13 12 10 10 9 9 8 8 8 8 9 10 10 9 10 11 11 11 11 11 11 11 12 13 13 13 12 11 12 13 15 15 12 11 13 15 13 14 15 15 15 16 16 16 17 16 15 15 15 16 17
5 4 3 3 1 1 1 2 3 2 4 3 1 2 2 2 3 3 4 4 3 3 7 7 6 4 3 4 3 2 1 2 3 3 4 11 12 11 16 17 16 15 14 14 14 14 13 12 10 10 9 8 8 8 7 8 10 10 10 9 10 12 11 11 11 11 11 11 12 13 13 13 12 10 11 13 16 16 12 10 13 14 11 12 14 15 15 15 15 16 16 16 15 15 15 16 16
4 3 2 3 1 1 2 3 2 3 4 3 1 2 3 2 4 2 1 0 2 3 6 7 4 1 2 3 1 2 1 1 3 4 6 10 9 15 19 17 17 15 15 15 14 14 13 12 11 10 8 8 8 8 8 10 10 10 11 9 9 11 12 11 11 11 12 11 11 12 13 13 12 10 9 12 16 17 14 12 13 13 9 10 13 14 15 14 14 16 15 15 15 15 15 14 14
3 1 1 3 1 0 1 2 1 3 3 2 2 3 4 2 3 3 3 2 1 1 3 4 3 1 3 3 1 2 1 3 4 5 8 9 12 20 20 18 18 15 16 15 14 14 12 12 10 9 8 8 8 8 9 10 10 11 10 9 10 11 11 11 11 11 12 12 11 12 13 12 12 11 9 10 14 17 17 14 15 14 10 9 12 13 14 14 13 14 14 14 14 14 14 13 12
3 3 2 2 1 1 2 3 3 2 2 2 2 3 4 2 3 2 3 3 3 4 4 3 4 4 3 1 2 2 3 4 5 7 11 12 17 21 20 19 17 16 16 14 14 13 12 11 9 9 9 8 8 8 9 9 10 12 10 8 10 11 11 11 11 11 12 12 11 11 12 12 11 11 10 9 11 15 17 16 16 16 13 10 12 14 14 14 12 13 13 13 13 13 13 12 10
2 3 1 1 1 1 3 3 3 1 1 2 2 3 3 2 2 1 3 3 5 6 5 3 5 6 2 0 2 2 2 6 6 9 13 17 20 21 20 19 17 17 16 15 14 12 12 10 9 8 8 8 8 8 8 8 10 12 10 8 10 11 11 11 12 12 12 11 10 11 12 12 11 10 10 9 10 12 16 16 16 17 16 13 12 13 14 13 12 13 13 13 12 12 12 11 10
2 2 1 2 1 2 3 3 2 0 0 1 2 2 3 2 2 2 2 2 2 3 4 4 4 5 1 2 2 3 7 8 10 13 17 21 21 20 20 18 17 17 16 16 14 12 11 9 8 7 7 7 7 7 7 7 10 11 10 9 10 11 11 12 12 12 12 11 10 10 11 11 11 10 10 9 9 11 14 15 15 16 17 16 13 13 13 12 11 12 13 12 11 10 10 10 9
1 0 0 2 2 3 3 2 1 1 1 2 2 2 2 2 1 2 2 1 4 3 3 2 3 5 1 4 3 2 8 13 16 17 20 21 21 20 19 18 17 16 16 16 14 13 11 8 7 6 7 7 7 7 6 8 9 12 11 9 11 12 12 13 12 12 12 11 9 8 10 11 11 10 9 9 9 10 12 12 13 15 17 17 15 13 12 11 11 11 11 10 9 9 10 10 10
1 0 1 2 3 4 3 2 1 0 1 2 2 2 2 3 1 3 2 2 4 4 2 2 5 6 3 4 2 1 8 17 20 19 19 20 19 19 18 17 16 15 16 16 15 13 11 8 7 7 7 7 7 6 7 7 9 12 12 9 10 13 13 13 12 11 11 11 8 7 8 10 11 10 9 9 10 11 11 11 11 12 13 15 15 14 12 11 10 11 10 9 9 10 10 10 9
2 1 1 2 3 3 2 1 1 1 3 2 2 2 1 3 1 4 3 3 3 4 3 4 6 5 4 3 2 4 13 17 19 19 18 19 18 18 17 16 15 14 15 16 15 13 11 9 8 9 9 8 7 7 7 7 8 10 12 10 9 10 13 13 12 12 11 11 9 7 7 8 9 9 9 9 10 11 12 13 12 10 10 12 13 12 11 11 11 11 10 9 10 10 10 9 8
2 3 2 3 3 2 2 2 2 1 3 1 1 2 1 3 1 4 4 3 3 5 2 2 5 4 4 2 1 6 13 14 17 19 18 17 16 16 15 15 14 13 13 14 15 14 12 11 9 9 8 8 7 7 7 7 7 9 12 12 9 8 11 12 11 11 11 10 10 8 7 6 7 7 8 9 10 10 11 12 12 11 10 10 10 10 10 10 11 10 10 9 9 9 9 7 7
1 2 2 2 1 2 2 2 1 1 3 1 1 2 2 2 2 5 4 3 4 4 1 2 6 4 4 1 1 5 8 13 17 19 17 16 15 14 14 13 13 13 13 14 15 14 13 11 11 10 8 8 8 7 7 8 7 9 10 11 11 8 9 10 10 11 9 8 9 8 6 6 5 6 7 7 8 9 10 10 11 11 11 10 10 10 10 9 9 8 8 9 9 9 8 7 6
1 1 2 2 1 2 2 1 1 2 1 2 1 3 3 2 2 3 6 5 1 1 1 3 6 6 3 2 2 2 5 13 18 18 16 15 14 14 13 12 13 13 13 14 15 14 12 11 12 12 11 10 9 8 8 8 7 8 8 9 11 10 9 10 12 13 10 7 8 7 6 5 5 4 5 6 7 8 9 9 10 10 10 10 9 9 9 8 7 7 7 7 8 8 7 7 6
1 1 2 2 2 2 1 1 2 3 1 3 1 2 2 2 2 3 5 5 1 1 4 3 3 3 3 4 4 4 9 16 17 17 16 15 14 13 12 12 13 13 13 14 14 13 11 10 11 13 12 11 10 9 8 7 6 7 8 8 10 11 10 10 12 14 12 10 8 7 6 5 4 4 5 5 7 7 8 8 9 9 9 9 8 8 7 7 6 6 6 6 6 6 6 6 6
1 2 3 2 1 1 1 2 3 3 2 3 1 1 2 2 1 2 2 4 3 2 3 1 1 2 4 4 5 10 16 19 18 17 16 15 15 13 12 12 13 13 13 13 12 11 10 9 10 11 10 9 9 8 8 7 7 7 8 8 9 11 10 9 10 12 13 11 9 8 7 5 5 5 4 5 6 6 7 7 7 7 7 8 7 7 7 6 6 5 5 4 4 4 4 4 5
1 2 3 2 1 2 3 3 3 3 2 3 1 1 4 2 2 0 1 5 6 2 3 1 2 3 5 5 11 19 20 20 19 18 17 17 16 13 12 11 12 12 12 11 11 10 9 8 8 9 9 8 8 8 9 9 8 8 9 10 8 9 10 10 9 10 11 10 9 8 7 6 6 5 5 5 5 5 6 6 6 5 6 6 6 6 6 5 5 4 3 3 3 2 2 3 4
2 2 2 1 1 3 4 4 4 3 2 3 1 1 5 4 1 1 4 5 4 3 4 3 6 6 8 12 20 22 20 21 20 19 18 16 15 13 13 12 12 12 12 11 10 9 8 8 8 9 10 9 9 9 10 10 10 9 9 10 9 9 10 10 10 10 11 10 9 8 7 6 6 6 5 4 4 5 6 5 5 5 4 4 4 4 4 4 3 3 2 3 2 1 0 1 3
2 2 1 1 3 2 1 4 4 2 3 3 2 1 2 4 1 2 3 4 4 4 3 4 7 7 9 14 20 20 20 20 19 18 16 15 14 13 13 13 13 12 12 11 10 9 9 9 9 10 11 10 10 11 11 10 9 8 8 9 7 8 10 11 11 11 11 9 8 7 6 6 6 6 5 4 3 5 6 5 4 4 3 3 3 3 3 3 2 2 2 2 1 1 1 1 2
2 2 1 3 2 1 3 2 2 2 4 6 3 1 2 2 2 1 5 6 5 4 3 5 6 6 8 10 15 18 18 17 16 16 14 14 12 12 13 13 14 13 12 12 11 10 10 9 9 9 9 10 11 12 12 10 8 7 7 8 7 9 10 10 11 11 10 9 7 6 6 5 6 6 5 4 3 4 5 4 4 4 3 3 3 3 3 3 3 2 2 2 2 2 2 3 3
2 2 2 4 1 2 3 2 2 3 4 5 4 3 1 2 1 2 7 7 3 5 7 8 10 11 11 9 12 15 15 14 14 13 12 12 11 11 12 13 13 13 13 12 11 11 10 9 9 8 8 7 8 9 11 10 9 9 9 10 10 10 9 9 9 10 9 8 7 7 6 6 7 6 5 4 4 4 3 3 3 3 2 2 2 3 3 3 4 4 4 5 5 6 6 5 6
1 2 2 2 1 2 3 3 3 3 4 4 5 4 2 1 2 3 8 8 4 5 7 8 11 13 13 11 11 12 11 11 11 12 12 12 12 11 11 12 13 14 13 12 12 11 11 10 10 10 9 8 8 9 10 10 10 12 13 12 11 9 9 8 9 9 9 8 8 8 7 7 7 6 5 4 4 3 3 3 2 2 2 2 3 3 4 4 6 7 7 7 7 7 7 7 7
1 1 2 3 3 3 2 2 3 4 5 3 3 2 1 2 2 2 8 8 3 4 6 7 10 12 14 13 11 11 10 10 11 13 13 13 13 13 13 13 13 15 14 13 12 11 11 11 10 10 11 11 12 12 11 11 12 13 12 11 10 8 8 9 9 9 9 9 8 8 7 7 7 6 5 5 4 4 3 2 2 1 2 2 3 4 5 7 8 9 8 7 6 6 6 6 6
3 1 3 4 5 4 2 2 4 4 3 2 1 1 1 2 2 2 5 8 3 5 8 8 10 12 14 11 9 10 10 11 12 12 13 13 13 14 14 14 14 16 15 14 12 10 11 11 10 10 11 12 14 15 14 13 13 11 10 9 9 8 8 9 9 9 9 9 8 8 7 7 6 6 5 5 4 4 3 2 2 1 2 3 4 6 8 9 9 9 8 7 7 6 5 4 5
3 2 2 2 4 3 3 4 4 3 1 3 1 2 1 3 3 2 4 7 5 8 10 10 10 11 11 10 9 9 8 9 10 10 11 11 12 12 12 13 14 16 16 13 12 11 11 11 10 10 12 12 14 16 15 14 13 11 10 10 9 9 9 9 9 9 9 9 8 8 7 7 6 6 5 5 4 4 3 2 2 2 2 4 6 7 9 9 9 9 8 8 9 7 5 3 4
2 3 2 2 3 3 4 5 5 2 0 3 2 1 3 3 2 1 2 3 7 11 12 11 11 10 9 9 9 8 7 8 10 10 11 10 12 12 12 13 14 16 16 13 12 12 12 11 10 11 12 12 14 16 15 15 14 13 11 10 9 9 10 10 9 9 9 9 9 8 8 7 7 6 5 5 4 4 3 2 2 2 3 5 7 8 9 9 10 9 8 9 10 8 5 3 3
4 6 4 4 4 4 5 5 5 3 1 3 3 0 4 3 2 1 2 3 9 13 11 10 11 10 9 8 7 8 8 9 11 11 10 10 12 13 13 14 14 15 15 14 13 12 12 11 11 12 12 12 14 15 15 15 15 14 12 11 10 11 11 10 9 9 9 10 9 8 7 6 6 5 4 4 4 4 3 2 2 2 4 6 7 7 8 8 9 9 9 10 10 7 4 2 1
6 6 5 5 5 5 6 5 5 4 1 2 3 1 4 3 2 1 1 4 10 13 12 10 10 9 9 8 7 6 7 9 12 11 11 13 14 15 15 16 16 15 15 15 14 13 12 12 11 12 12 12 13 14 15 15 14 14 13 12 11 11 11 10 9 9 10 9 8 7 6 5 4 4 4 3 3 3 2 2 1 3 4 5 6 7 7 8 8 8 8 9 8 8 5 2 1
4 4 5 3 3 5 6 4 5 5 1 4 1 3 3 4 2 3 0 5 9 12 12 10 9 8 7 7 6 5 7 9 12 12 13 15 15 16 17 17 17 16 15 14 14 13 13 12 12 12 12 13 13 14 15 15 14 14 13 12 11 11 10 10 10 10 9 7 6 5 4 4 3 3 3 3 3 2 2 1 2 3 4 5 6 7 7 7 8 7 6 6 6 8 6 4 4
3 4 4 2 3 3 4 2 3 3 1 4 2 3 3 4 3 4 2 6 9 10 10 9 8 7 7 6 6 6 7 9 12 13 14 15 15 16 17 16 16 16 15 14 14 14 13 13 13 12 12 13 13 14 14 14 14 14 13 12 11 11 10 10 10 9 7 6 5 5 4 4 3 4 4 3 2 2 2 1 2 3 3 4 6 7 7 6 7 6 5 6 6 8 7 3 7
3 2 2 2 2 1 3 3 1 1 1 2 4 3 4 5 5 4 2 7 10 10 9 9 8 6 7 7 7 7 7 10 13 14 15 16 16 16 16 16 16 16 16 15 14 14 13 14 14 14 14 14 14 15 15 15 14 14 13 12 12 11 11 10 9 8 6 6 5 5 5 5 5 5 4 3 2 2 1 1 1 2 3 4 6 7 7 6 6 5 4 5 5 7 5 3 7
2 1 3 2 2 0 2 4 5 2 1 3 4 2 2 5 5 4 1 6 9 10 9 8 8 7 7 7 7 7 6 9 12 13 15 16 16 15 17 17 17 17 17 16 15 14 14 14 15 15 15 15 15 15 15 15 15 14 13 13 12 12 11 10 8 6 5 5 5 6 6 6 6 5 4 3 2 2 1 1 0 1 2 4 6 5 6 6 5 5 3 4 5 6 5 2 7
3 1 2 2 2 2 1 2 5 4 1 3 3 3 1 4 4 3 1 6 7 8 9 7 7 7 7 7 7 6 6 6 8 11 15 16 16 15 17 18 18 18 17 16 15 15 15 15 15 15 16 16 16 16 16 16 15 14 13 13 12 11 11 9 6 5 5 4 5 7 7 6 6 5 3 2 1 2 2 2 1 1 2 3 4 4 5 5 4 3 3 4 6 5 5 2 7
3 2 1 2 1 2 1 1 3 3 1 2 3 3 4 4 4 3 1 6 7 7 8 7 6 7 6 6 6 6 6 6 7 11 15 16 16 15 17 19 18 18 17 16 16 16 16 16 15 15 16 17 17 17 17 16 15 14 13 12 12 11 10 8 6 7 7 5 5 8 7 5 4 3 2 2 3 3 3 2 2 1 1 2 3 4 4 4 3 3 3 4 5 4 3 2 4
2 2 1 1 0 1 1 1 2 3 2 1 2 1 4 4 4 3 2 5 8 7 7 6 6 7 6 6 7 7 7 7 8 12 16 17 17 16 17 18 18 18 17 16 16 16 16 16 15 15 16 17 17 17 17 16 15 14 13 12 12 12 10 8 7 8 8 7 6 7 7 4 3 3 3 4 4 4 4 3 2 1 2 2 2 2 3 2 2 2 3 3 4 4 3 2 1
6 5 4 3 2 1 2 1 1 4 3 1 3 2 3 3 3 3 4 1 7 7 5 5 5 6 6 6 6 7 8 8 9 14 16 17 18 18 18 19 19 18 18 17 17 17 16 16 16 16 17 17 17 16 16 16 15 15 14 14 14 13 12 10 8 8 9 8 7 7 7 5 4 4 5 5 6 5 4 4 3 2 3 2 1 2 2 3 2 2 3 3 3 3 2 1 1
5 4 3 4 3 0 1 2 2 4 3 1 2 1 4 3 3 4 4 2 5 7 6 5 6 6 6 7 7 7 7 6 9 14 16 17 18 18 18 19 19 18 18 18 18 18 17 17 17 17 18 18 17 17 17 18 17 17 16 16 16 15 13 11 9 10 11 9 9 8 8 8 7 7 6 7 7 6 5 5 4 3 3 2 1 2 3 3 3 4 3 2 3 3 3 3 1
4 4 3 3 3 1 2 1 4 4 1 1 0 1 6 5 3 4 3 0 5 7 8 7 7 7 6 7 7 7 5 4 7 11 14 16 17 18 18 19 20 20 20 20 20 19 18 18 18 18 18 19 19 18 18 19 19 19 18 17 17 15 14 12 10 11 11 10 10 10 10 10 9 9 7 7 7 6 5 5 4 4 3 2 2 2 3 3 4 4 3 2 3 4 6 5 4
2 2 4 2 2 3 1 2 3 3 1 2 1 2 7 6 4 4 4 3 4 5 6 6 7 7 6 7 7 6 6 5 6 8 12 16 17 18 18 19 21 21 21 22 22 21 19 19 19 19 19 20 20 19 19 18 18 18 17 17 16 14 13 11 10 11 11 11 11 11 11 11 11 10 8 7 7 7 6 5 4 4 4 4 4 4 4 3 4 4 4 3 3 4 5 6 6
3 3 3 2 4 4 0 0 2 3 2 1 2 3 5 6 3 4 5 4 3 2 3 3 5 7 7 8 7 8 9 8 8 8 10 14 16 18 18 19 21 21 21 22 23 23 21 20 20 20 20 21 21 20 19 18 17 16 16 15 14 13 12 11 11 12 12 12 12 12 12 11 11 10 8 7 7 7 7 6 5 5 5 5 6 5 5 4 4 5 5 5 4 4 4 5 6
2 5 5 4 5 4 2 4 4 3 2 2 4 2 4 4 4 5 2 2 3 2 2 3 4 4 5 6 7 8 10 10 10 10 9 12 16 19 20 21 21 21 22 24 25 25 23 22 21 21 21 21 21 21 19 18 16 16 15 14 13 13 12 11 12 14 14 14 14 13 12 11 11 11 9 8 7 7 7 7 6 6 6 7 7 7 7 5 5 5 5 6 6 5 5 4 4
4 4 7 6 7 6 7 9 6 3 1 2 3 2 4 4 3 5 1 1 4 2 2 6 6 4 4 6 7 7 8 9 10 11 11 13 16 18 20 21 21 22 24 26 26 26 25 23 22 22 22 22 22 21 20 18 17 17 16 15 14 13 12 12 15 17 17 16 15 13 12 11 11 11 10 9 8 8 7 7 7 8 8 9 9 9 8 6 5 5 5 6 6 5 5 4 4
3 4 7 8 10 10 11 10 5 2 2 3 2 3 3 5 4 4 3 2 5 3 4 7 6 5 5 7 8 8 8 8 7 9 10 12 16 17 19 21 23 24 25 26 26 26 25 24 23 23 22 22 22 21 20 19 18 18 17 16 16 16 16 16 17 19 18 17 15 13 11 11 10 10 11 11 10 9 8 8 8 9 9 10 10 10 8 7 6 5 5 5 5 5 6 5 6
2 3 6 11 10 10 12 9 4 2 2 3 4 3 0 4 4 4 3 3 5 5 6 7 6 6 6 6 8 9 10 9 8 8 9 11 16 19 20 23 25 26 26 25 25 26 26 25 24 23 23 23 22 22 21 20 20 19 18 18 19 18 19 18 17 18 18 17 15 13 11 11 10 10 10 11 12 11 10 9 9 9 9 10 10 9 8 7 6 6 5 6 5 6 6 6 6
3 2 8 9 8 8 6 5 3 1 2 3 4 2 2 4 5 4 2 2 5 7 8 8 8 8 6 7 7 9 10 10 10 10 10 12 17 21 23 24 26 25 25 26 27 27 27 26 25 24 23 23 23 22 21 21 21 20 20 21 20 20 19 18 17 17 17 16 15 13 12 11 11 11 11 11 12 12 11 9 9 9 9 9 9 8 8 7 6 5 5 5 5 6 6 5 5
1 6 12 9 8 7 5 4 3 2 3 1 5 1 2 4 5 3 2 1 5 7 7 7 8 9 7 7 7 8 8 9 10 10 11 15 19 23 24 23 24 25 25 26 27 27 27 27 26 26 25 25 24 23 22 22 21 21 22 22 21 20 20 18 17 17 16 15 15 14 12 11 11 11 11 11 11 11 10 9 9 9 9 9 8 8 8 7 6 5 5 5 5 5 5 5 6
7 8 10 9 7 5 4 3 3 4 2 4 6 3 4 2 5 3 1 3 4 5 5 5 8 9 9 9 7 8 8 8 9 9 10 15 20 22 22 21 23 24 24 24 25 26 27 28 28 27 27 26 25 24 22 22 22 23 23 23 21 21 20 19 17 17 16 16 15 14 13 12 12 12 11 11 11 10 10 10 9 9 10 10 10 9 8 7 7 6 5 5 5 5 5 5 6
7 6 6 6 4 4 4 4 3 3 2 5 4 3 5 1 4 3 4 5 5 4 5 6 7 10 11 10 9 8 8 8 9 8 9 12 14 17 19 21 22 23 23 24 25 26 27 28 29 29 29 28 27 25 24 23 24 24 23 21 20 20 20 19 18 17 17 17 16 14 13 13 13 12 12 12 12 11 10 10 10 10 10 11 11 9 8 8 7 7 6 6 6 6 7 7 7
6 6 5 5 3 3 2 3 1 1 4 3 3 4 3 4 6 4 6 7 6 6 6 7 7 8 9 10 10 9 8 8 9 8 9 9 10 14 18 20 21 22 23 25 26 27 28 29 29 30 31 31 29 28 27 25 25 24 22 20 19 19 20 20 19 18 17 17 15 14 15 15 14 13 14 14 13 12 11 11 10 10 10 10 10 9 9 9 8 8 7 6 6 7 7 7 7
5 6 4 4 3 3 0 3 1 2 3 1 2 3 0 4 4 5 6 6 6 6 6 7 7 7 8 9 9 8 8 9 9 9 9 9 11 16 19 21 22 23 25 27 27 27 28 29 30 31 32 32 31 30 29 27 26 25 23 22 20 19 19 20 20 18 17 17 16 16 15 15 15 14 14 14 13 12 12 12 11 11 10 9 9 9 10 10 10 9 8 7 7 7 7 7 6
3 4 5 5 5 4 3 3 2 3 2 2 1 1 2 2 2 4 5 5 5 4 5 5 4 5 6 6 7 8 8 9 8 9 10 10 14 18 20 21 23 24 25 26 27 28 28 29 30 31 32 32 32 32 30 29 28 27 25 23 21 20 20 20 20 19 18 17 16 16 16 16 16 15 14 14 13 13 13 12 12 11 10 10 9 10 10 11 11 11 10 9 9 8 8 7 7
2 2 4 2 4 5 3 3 4 3 1 0 1 2 3 3 3 4 3 4 3 2 4 3 3 3 2 4 6 7 8 8 8 9 10 11 15 19 21 22 24 25 26 27 27 28 29 29 31 32 32 32 33 33 31 29 29 27 25 23 22 21 21 20 21 20 19 18 17 17 17 17 16 15 15 14 13 13 13 13 12 11 10 10 10 10 10 11 11 11 11 11 11 10 9 9 9
1 2 2 2 3 6 5 2 1 3 2 2 1 2 4 2 2 4 4 4 4 5 6 5 5 4 1 3 5 5 6 7 6 7 8 10 14 18 20 22 24 24 25 27 29 30 31 31 31 32 32 31 32 33 31 30 29 28 25 24 23 23 22 21 21 20 19 19 18 18 18 18 17 16 15 14 13 13 13 13 12 11 11 10 10 11 11 11 12 12 12 12 12 12 11 11 11
3 2 4 3 3 4 4 2 3 3 1 3 1 2 4 1 2 3 4 4 5 6 5 4 5 5 3 2 3 4 5 5 4 4 5 8 12 17 21 23 26 28 29 29 30 31 32 32 31 32 32 32 33 33 31 30 30 29 27 25 24 24 23 22 21 20 19 19 19 20 20 19 17 16 15 14 14 14 13 13 13 13 12 11 12 12 13 13 14 14 14 13 13 13 13 13 11
4 4 3 2 3 1 1 2 1 0 1 3 3 2 3 3 3 2 0 1 3 5 5 5 5 4 4 4 3 4 4 3 3 2 2 3 4 5 7 7 9 15 21 27 31 31 30 30 31 31 33 33 34 33 32 30 31 31 30 27 26 25 25 24 23 21 20 19 20 20 20 19 17 16 15 15 14 15 14 14 14 14 14 14 14 14 15 16 16 16 15 14 13 13 13 13 11
5 3 2 2 2 3 1 2 2 2 1 2 3 3 2 5 5 4 5 5 4 3 4 4 4 4 3 4 4 3 3 3 3 3 3 3 6 7 5 4 1 5 11 14 21 27 29 30 29 30 31 31 31 32 31 31 31 32 31 30 28 27 26 25 24 23 22 20 20 20 20 19 17 16 15 15 16 16 16 15 15 16 16 16 17 17 16 16 17 17 17 16 14 14 13 13 12
3 2 2 1 2 2 2 2 2 2 3 2 1 2 4 5 4 6 6 5 5 4 3 3 3 4 4 4 4 4 2 2 3 5 4 4 8 13 15 15 16 19 18 14 16 22 27 29 29 29 29 29 30 31 32 32 32 32 32 31 31 30 29 28 27 26 24 22 20 20 20 19 18 17 17 16 17 17 17 18 17 18 18 18 18 18 17 17 17 17 18 17 16 15 14 13 12
5 4 3 3 3 3 3 1 2 1 3 3 3 1 6 5 3 4 5 4 4 4 3 3 4 3 3 4 4 4 4 3 4 3 4 5 8 14 17 18 19 22 24 21 18 20 23 26 29 29 29 29 30 31 32 33 32 32 32 33 32 32 31 30 29 28 27 25 22 20 20 20 19 19 18 18 18 18 19 20 19 19 19 18 19 19 18 19 19 19 19 18 17 16 16 15 13
Wind_Direction
144 143 152 157 166 156 114 76 71 0 76 73 350 42 252 223 193 128 100 134 131 197 197 141 143 136 129 147 156 161 124 151 160 136 198 252 155 158 157 154 156 150 142 138 137 138 139 141 138 131 128 125 121 117 116 117 117 114 110 106 108 110 108 106 107 108 109 111 111 110 109 110 111 112 111 108 100 98 104 108 110 111 116 120 119 117 116 120 119 117 117 115 114 113 113 112 113
137 144 160 162 180 166 21 77 83 11 65 68 334 178 290 319 317 175 176 187 195 183 129 129 131 88 66 119 131 113 42 30 105 130 122 135 146 158 157 155 155 149 143 137 135 134 135 133 127 126 125 126 125 118 114 116 116 111 105 108 116 112 108 113 117 114 110 110 112 111 111 111 113 117 118 114 104 103 109 110 109 109 119 122 118 117 115 117 119 118 118 117 117 116 113 112 113
140 154 175 168 152 132 49 46 90 67 83 87 25 275 337 352 278 235 214 215 210 144 112 119 110 82 71 85 90 86 82 25 84 103 115 139 149 161 158 156 154 148 142 137 135 133 133 128 127 130 129 130 124 118 117 117 119 112 108 115 117 112 119 126 124 120 114 113 114 113 113 113 114 119 121 116 108 107 111 110 104 104 118 122 116 115 113 117 120 118 116 116 118 116 113 112 112
143 164 189 169 90 38 63 51 115 109 100 118 102 312 356 322 290 314 287 195 181 114 107 126 100 15 94 96 45 86 107 68 109 115 133 155 164 158 157 156 153 148 142 138 137 135 133 131 132 133 133 131 123 122 121 120 122 112 112 122 116 115 129 134 129 125 121 117 116 114 113 114 116 115 115 112 109 111 115 113 104 106 118 123 115 109 110 114 116 115 115 118 118 115 114 114 112
162 227 270 154 116 346 102 75 90 86 116 157 124 304 328 308 331 41 64 76 185 32 85 119 89 14 87 98 96 111 116 94 124 132 133 159 163 155 156 156 153 149 144 140 139 137 134 133 135 137 136 131 128 127 124 124 122 110 113 126 118 118 130 135 132 127 125 120 118 118 115 115 117 116 114 108 107 112 120 121 116 116 121 123 113 106 110 113 112 113 116 121 118 115 115 114 112
224 288 312 131 158 197 88 73 76 63 186 174 130 277 299 316 355 39 97 69 35 56 72 80 107 108 80 36 55 121 166 123 132 146 141 152 158 155 157 157 156 153 147 145 143 140 137 138 140 143 138 134 132 128 130 127 117 112 120 128 119 121 133 141 135 130 129 122 120 121 118 117 117 118 117 111 107 112 119 123 120 118 121 125 118 114 114 111 113 117 120 120 117 116 116 114 112
265 316 350 90 326 75 77 88 97 49 210 177 173 244 277 318 0 75 110 72 47 48 57 76 118 109 74 351 66 49 110 127 133 150 152 150 155 156 158 159 159 156 152 150 149 145 141 143 146 146 138 135 133 130 136 126 116 119 126 129 121 126 140 148 140 137 134 125 124 123 120 120 119 119 119 117 111 109 112 117 119 118 122 124 120 118 115 113 117 122 123 119 115 115 115 114 112
286 330 69 92 28 43 77 86 97 205 212 200 226 243 272 306 21 88 66 61 98 59 72 104 100 92 27 22 80 27 64 115 134 146 149 147 154 157 160 162 161 160 157 156 155 151 144 146 150 147 139 135 135 136 140 132 127 124 126 132 127 132 145 148 141 140 137 129 127 125 122 120 120 120 117 116 113 110 109 114 120 121 121 120 117 115 114 114 119 126 126 119 115 116 116 117 116
295 339 81 81 73 61 84 66 37 211 320 330 302 299 308 308 45 96 36 35 123 98 96 135 80 99 104 41 77 15 70 114 128 136 143 146 154 156 163 166 164 163 163 163 160 154 145 148 154 154 148 142 147 147 145 143 138 127 127 140 138 138 146 147 143 140 139 132 129 128 122 118 119 120 116 113 111 111 111 116 120 117 115 117 116 115 116 114 119 129 128 122 121 124 124 125 125
349 126 94 75 86 83 83 42 352 34 299 293 300 302 332 320 19 86 82 93 104 94 96 85 74 108 133 68 50 15 108 124 124 129 141 146 151 157 164 166 168 166 167 170 165 158 146 150 163 169 165 156 160 160 155 148 143 133 130 145 147 140 143 147 144 144 144 135 129 127 121 117 119 118 117 115 113 110 109 112 112 106 103 109 112 113 116 117 126 134 135 135 137 138 135 135 135
2 317 98 79 69 92 111 71 19 329 280 290 319 292 340 314 36 72 79 99 76 98 126 74 88 120 107 71 18 116 129 129 126 131 140 143 148 157 162 163 167 165 166 170 168 162 152 158 174 180 175 162 171 177 169 152 146 142 136 145 153 141 137 141 144 148 148 138 132 127 123 119 118 118 117 118 117 112 110 111 110 101 92 97 104 112 119 127 139 144 146 149 147 146 144 145 145
24 328 58 83 66 98 144 118 96 329 311 11 1 317 355 319 82 108 101 119 108 110 163 102 136 148 83 49 14 126 130 127 129 134 138 141 147 156 158 160 163 163 164 167 167 165 159 162 174 181 177 164 178 188 177 162 154 151 143 143 150 146 135 137 145 151 147 141 133 126 128 126 123 118 114 115 115 112 110 113 115 111 102 101 106 113 119 127 139 147 152 155 152 153 154 155 153
54 340 56 83 86 109 117 122 121 56 4 7 227 312 4 12 103 137 114 106 117 110 233 161 146 119 79 73 105 136 136 130 134 135 139 141 146 154 156 158 160 162 162 163 165 167 164 165 172 177 180 177 182 184 176 172 163 158 150 140 143 149 142 139 145 146 139 135 127 125 133 135 133 120 108 108 109 109 110 112 113 113 113 114 116 115 117 123 128 137 150 157 158 160 162 165 165
82 16 88 93 71 99 110 127 129 108 51 284 256 320 357 59 128 135 110 104 78 143 136 123 124 94 94 145 124 178 151 139 139 137 140 139 143 149 153 158 160 162 163 163 164 167 170 170 173 182 188 182 186 187 178 174 165 163 155 139 142 148 153 153 148 141 136 134 130 132 140 141 140 122 105 100 100 102 108 113 112 113 116 119 119 118 120 123 120 123 137 150 158 164 170 175 179
127 71 93 96 62 75 125 154 137 126 188 262 274 325 26 74 135 92 114 124 318 208 106 87 109 84 149 172 172 192 154 146 143 140 139 135 138 142 148 154 158 164 167 167 165 169 174 168 171 191 196 179 187 198 184 175 170 173 160 148 149 147 159 167 153 143 142 147 145 145 144 142 139 122 106 94 94 98 104 109 108 112 116 117 119 118 119 119 117 116 120 129 142 160 175 185 194
127 102 68 77 95 122 166 162 141 132 211 243 289 326 85 53 106 97 159 133 124 160 87 99 253 88 147 170 168 158 149 147 144 141 136 131 134 137 144 150 155 164 169 169 167 172 176 170 172 194 199 179 185 193 186 183 179 181 167 158 152 147 159 166 157 148 145 146 145 144 141 140 135 122 107 91 90 97 101 100 101 111 115 115 117 117 116 114 114 113 112 112 119 143 172 194 207
73 77 61 71 134 164 181 173 169 152 190 230 293 332 122 83 339 80 72 96 124 130 48 79 2 69 124 135 146 146 146 146 144 141 133 131 133 135 141 147 155 163 168 170 169 173 177 173 174 184 188 179 179 179 184 190 189 188 174 162 147 149 162 159 157 150 139 141 146 146 143 143 139 130 117 100 88 89 95 93 96 105 109 112 113 114 111 107 109 107 103 98 97 118 171 204 217
57 66 75 109 185 193 188 176 184 144 143 205 228 179 129 121 32 47 71 76 102 57 29 64 47 59 98 119 137 142 145 146 147 143 136 137 137 138 144 152 159 164 169 172 173 178 178 173 170 173 180 177 172 173 179 188 196 195 176 159 146 155 162 154 156 148 139 145 151 146 142 146 146 140 125 104 91 91 93 86 88 94 100 108 105 106 104 101 100 95 93 87 86 83 177 227 232
103 83 67 217 209 207 189 160 165 128 138 153 140 118 108 141 148 56 109 131 127 85 31 70 75 80 98 117 132 141 145 147 151 148 144 147 146 147 151 159 163 167 175 179 180 182 180 178 178 180 186 179 171 171 170 179 195 193 170 151 153 166 160 158 162 154 148 150 148 142 140 147 150 140 123 106 95 100 96 88 94 99 107 110 100 99 91 80 74 75 78 70 67 34 341 299 272
151 97 65 255 228 42 7 80 123 66 123 129 124 77 55 180 211 50 135 146 148 145 145 119 119 130 124 127 134 141 146 148 156 154 151 152 153 156 158 164 166 170 181 185 185 186 183 185 190 196 206 192 175 170 166 175 182 173 164 158 175 175 161 163 160 152 150 147 142 138 135 141 148 140 132 127 107 100 96 96 106 108 106 99 84 71 53 38 33 33 24 6 340 323 304 285 272
160 142 175 253 217 80 351 30 56 39 87 119 115 102 85 215 193 92 127 135 198 207 190 165 157 154 144 145 143 145 149 151 160 162 157 155 158 162 163 166 166 171 178 183 187 188 186 189 197 203 226 221 190 177 170 172 169 166 175 178 183 173 164 164 152 148 145 139 138 137 135 139 146 142 139 130 110 99 93 91 90 86 77 56 35 30 27 17 10 1 346 331 318 307 294 284 276
130 175 172 274 116 95 340 33 65 44 63 91 107 127 198 185 113 123 148 162 213 206 193 170 156 155 151 151 149 150 155 158 167 170 164 161 164 164 163 164 165 172 178 182 184 186 186 189 198 199 213 223 210 198 180 170 170 176 182 182 180 169 165 163 151 147 137 133 137 138 141 143 145 141 136 126 114 108 99 91 80 69 51 31 16 14 10 0 351 343 334 326 320 307 296 290 281
120 275 40 20 55 79 356 38 44 34 56 78 121 159 307 80 90 152 173 194 217 150 157 154 148 149 146 147 152 158 166 172 177 179 172 165 166 167 167 167 169 176 180 182 182 187 188 189 200 199 197 203 203 199 186 178 181 182 180 175 176 171 165 161 154 148 136 135 137 143 151 149 144 137 131 125 119 119 113 107 96 79 55 34 13 7 359 351 344 338 335 335 336 325 308 292 279
90 10 19 33 47 65 48 70 54 47 59 306 248 104 61 140 140 123 192 221 223 127 132 134 138 140 142 149 163 170 174 180 183 183 177 171 172 173 173 174 176 179 180 181 179 185 188 186 194 191 185 191 194 192 187 186 186 182 176 172 177 176 169 162 156 148 142 143 145 154 158 150 139 128 126 125 126 129 120 115 104 77 49 24 3 0 354 352 349 343 343 350 355 344 323 289 267
76 54 359 41 51 61 75 79 68 85 155 288 332 104 206 205 158 126 229 229 177 130 127 129 134 140 149 161 171 175 178 181 184 180 177 176 174 174 178 179 180 180 181 180 175 182 187 184 187 182 180 185 186 188 188 185 186 186 181 178 180 177 169 161 155 150 149 152 153 156 153 141 127 120 123 125 127 120 107 97 78 50 26 6 358 360 355 354 355 352 350 354 356 347 331 301 261
114 91 33 62 47 38 66 64 37 43 45 344 48 84 279 243 180 100 299 211 152 128 129 136 139 150 162 169 174 178 182 183 183 180 176 174 172 174 179 182 183 183 186 185 177 181 184 183 186 182 181 183 182 186 187 183 185 189 186 181 179 170 163 160 156 153 154 154 150 147 139 129 120 119 122 121 116 103 91 72 45 13 10 1 356 3 360 355 357 358 355 353 352 347 337 320 286
109 100 77 69 64 48 51 52 23 5 37 40 84 186 283 257 167 95 9 141 141 125 132 144 147 162 170 173 180 181 188 190 184 176 168 168 172 176 178 182 185 185 190 190 183 180 178 181 184 182 182 181 179 183 185 183 185 188 185 180 174 167 163 163 160 156 155 150 144 141 134 129 127 125 123 117 109 99 83 55 23 354 8 4 356 2 2 355 356 1 358 351 348 346 335 308 304
103 107 80 41 48 55 36 37 13 354 29 36 84 142 297 327 67 305 253 157 142 132 142 153 156 168 172 177 181 184 195 193 183 175 173 176 179 179 179 185 185 185 192 193 189 182 177 180 181 181 181 178 177 180 182 182 183 184 181 176 173 167 165 164 160 157 153 148 147 145 141 141 137 132 129 121 106 94 75 42 11 5 11 4 357 358 1 357 358 2 355 347 342 340 324 235 184
99 93 84 30 21 52 36 23 359 2 328 297 21 102 333 347 12 314 244 151 141 138 150 158 164 171 173 180 179 187 194 186 185 187 189 187 184 182 184 189 187 185 191 194 193 187 183 183 181 181 181 177 176 177 178 178 178 178 175 172 170 167 165 164 161 160 159 161 165 165 167 167 157 150 144 131 111 91 71 55 28 19 8 1 1 359 1 359 357 357 347 344 341 338 329 218 191
83 54 78 79 7 36 66 41 353 14 248 292 15 124 279 295 285 317 82 140 139 140 159 164 167 173 175 183 182 191 189 182 191 195 196 191 187 186 187 190 189 187 188 190 193 191 189 187 182 183 181 177 176 176 176 174 175 174 171 169 168 168 169 170 170 172 176 185 196 201 198 191 179 165 151 139 119 101 92 72 42 17 358 2 5 1 1 357 354 352 341 349 346 336 335 220 205
79 56 34 81 34 351 140 161 155 109 230 341 48 135 245 282 289 321 82 150 150 151 171 169 167 175 178 186 186 191 191 189 196 195 195 192 187 188 188 187 187 187 187 189 192 190 189 187 182 182 180 177 175 175 175 172 173 170 167 167 168 172 176 177 179 185 198 213 219 213 200 189 176 163 153 141 118 115 123 94 47 8 356 4 1 358 0 354 351 347 339 354 351 332 332 222 214
58 63 324 7 71 10 150 166 171 175 336 22 47 123 263 283 273 306 62 159 162 161 173 173 172 178 179 186 189 190 193 193 194 193 194 191 186 187 189 185 184 188 188 188 189 187 187 185 182 181 179 177 175 173 172 170 169 167 166 168 172 177 180 181 183 196 214 219 210 199 190 177 166 157 150 137 126 152 174 167 120 349 352 358 359 4 5 355 350 345 346 6 2 338 328 234 216
355 49 306 317 58 28 32 154 186 204 9 28 35 121 205 288 277 309 79 164 173 167 174 178 178 183 179 181 187 186 184 186 191 194 192 189 188 189 189 187 185 188 189 187 185 185 186 183 182 183 179 177 175 172 171 170 168 167 168 171 177 182 184 185 187 198 207 204 188 186 182 171 162 158 152 148 174 200 203 201 231 304 336 356 7 20 14 3 355 350 9 25 16 351 331 272 220
320 33 19 281 61 61 0 343 194 191 62 48 39 106 197 281 308 325 72 159 178 179 180 185 183 186 183 176 181 183 182 186 192 194 191 187 189 190 190 188 187 188 189 188 186 186 185 182 183 184 180 177 175 173 172 170 169 169 173 177 184 189 191 192 195 201 200 191 178 179 180 175 167 168 185 221 222 222 218 217 241 270 316 352 11 23 18 8 2 3 25 35 29 17 356 335 234
184 172 127 265 89 96 299 300 191 148 76 112 81 89 237 294 332 331 7 156 183 194 189 188 185 185 184 178 180 182 184 193 197 193 190 187 187 188 188 188 187 187 188 187 187 188 187 185 185 183 181 178 176 175 174 173 174 175 179 185 193 197 198 200 205 208 201 195 186 179 183 188 188 201 230 238 228 228 224 220 228 254 309 337 4 18 12 359 0 13 25 36 34 39 45 36 257
157 174 151 153 151 206 216 179 159 144 105 150 177 203 256 300 326 316 342 157 187 198 195 192 189 184 184 180 182 184 188 198 196 191 188 186 186 186 186 186 187 187 188 188 187 189 189 187 186 185 183 181 178 178 179 180 181 184 189 195 202 203 205 209 216 217 208 204 200 190 194 206 210 216 231 234 227 224 224 225 229 264 307 319 1 12 359 356 2 5 16 35 31 37 47 36 266
125 134 132 147 139 195 218 120 130 149 133 246 205 232 274 283 291 281 322 358 184 190 190 197 193 185 186 185 184 184 189 191 184 185 186 185 186 185 183 182 183 184 187 188 187 191 193 190 189 186 185 185 184 184 185 186 187 189 195 201 206 206 209 217 223 222 214 208 205 203 209 215 214 217 226 228 225 228 233 235 239 266 300 319 354 354 355 5 5 354 0 23 28 42 41 33 4
111 130 138 124 129 194 295 115 148 151 138 283 120 288 272 254 224 264 306 349 190 190 185 193 196 190 189 186 183 180 173 154 164 177 182 182 183 183 182 180 182 184 187 189 190 192 196 196 193 189 189 191 190 190 191 192 192 192 196 200 203 207 212 220 224 218 210 207 209 210 215 217 214 215 222 225 227 233 241 245 247 260 283 310 324 333 345 358 5 4 3 0 25 41 40 40 28
133 118 125 129 168 166 338 17 124 119 90 294 213 205 262 259 213 228 246 220 223 203 182 182 187 190 194 188 177 166 158 153 166 174 178 181 183 182 182 183 186 188 187 189 191 193 197 200 198 194 194 195 195 196 197 198 198 196 197 198 201 208 216 223 223 213 208 210 214 216 218 216 212 213 218 223 226 231 240 248 248 255 269 283 298 313 326 341 358 13 18 9 16 34 41 45 38
154 130 123 198 209 166 186 303 99 77 86 143 169 192 269 282 254 228 221 223 254 238 189 189 188 192 201 195 179 168 168 169 174 176 178 180 181 182 183 186 189 188 188 189 190 193 198 203 202 198 198 199 199 199 201 202 202 200 201 205 211 219 226 228 223 215 214 216 216 217 216 215 213 213 216 219 224 226 230 239 245 255 264 268 282 298 310 329 350 4 13 11 10 21 39 47 47
245 169 166 190 192 174 132 137 120 41 37 114 103 33 301 276 254 248 238 232 257 264 206 224 234 218 211 204 191 182 178 174 174 177 180 180 182 185 186 188 189 188 190 192 192 194 198 203 204 202 200 201 203 202 201 202 205 206 209 216 223 227 228 225 218 215 217 219 217 215 213 214 215 213 215 218 221 224 227 235 244 253 259 264 276 291 300 315 336 349 357 357 1 13 20 27 47
305 213 197 172 151 135 109 124 117 49 328 226 107 50 299 296 269 253 290 194 231 269 229 221 231 226 210 205 200 195 192 186 180 180 182 182 184 186 187 187 188 191 194 196 196 197 199 203 204 205 203 202 204 204 202 204 208 212 216 219 217 215 215 215 215 215 215 215 214 213 213 215 216 215 217 217 219 224 228 235 244 251 257 263 273 285 293 301 316 329 337 341 347 358 358 1 21
312 245 187 141 127 129 132 138 124 101 225 277 86 133 270 318 312 278 312 255 232 258 243 228 228 219 208 206 201 195 195 197 192 187 185 182 183 185 188 189 190 194 198 198 198 199 201 204 205 206 205 205 204 204 205 208 212 217 222 224 221 214 212 216 219 218 216 215 213 213 215 216 217 218 219 218 220 223 228 238 248 254 258 263 272 282 288 290 300 309 315 320 327 343 351 359 10
276 278 134 130 134 142 148 142 119 153 183 0 25 107 115 307 285 288 309 229 236 248 236 236 235 224 218 217 210 199 195 194 193 192 189 186 186 188 191 192 194 197 197 196 197 200 201 203 206 207 205 205 205 205 208 213 217 222 225 226 224 221 218 219 220 218 217 217 215 213 214 217 221 223 221 220 220 223 229 240 250 257 260 263 269 276 279 279 286 294 303 309 311 330 347 358 4
291 26 96 114 122 122 129 114 95 120 96 10 328 66 85 277 276 317 351 191 239 245 230 230 232 228 222 220 218 211 202 195 193 193 191 191 191 194 195 195 197 198 196 195 197 200 202 202 204 207 206 206 207 208 212 219 223 224 224 223 221 220 220 220 217 215 216 216 215 214 214 219 223 225 223 221 221 225 231 238 249 257 259 261 266 271 271 269 276 285 301 310 310 325 339 349 355
218 91 83 77 76 81 80 84 90 47 59 270 269 148 111 276 285 329 14 194 244 245 230 221 221 226 224 220 221 215 210 202 198 197 194 194 194 197 198 195 197 198 198 198 198 198 201 202 203 206 208 206 208 213 218 223 224 221 219 218 218 217 217 217 215 215 216 215 216 216 218 221 222 224 224 222 222 223 227 236 248 254 254 254 261 267 267 265 272 284 301 307 305 314 321 328 339
132 90 79 72 56 53 55 55 78 57 8 259 246 181 126 289 287 276 218 215 225 236 253 231 210 217 218 215 217 213 211 205 200 200 199 197 197 198 197 195 196 198 199 198 198 198 200 202 203 205 208 208 209 214 219 221 217 215 216 218 219 219 218 216 215 215 216 216 217 220 223 224 224 226 227 224 222 222 229 238 248 253 251 251 256 263 265 266 271 282 297 299 293 296 300 307 319
104 86 88 81 27 17 31 356 36 83 266 261 243 160 122 200 263 252 246 252 237 223 252 248 215 215 217 212 209 207 209 206 199 199 198 194 194 195 195 196 197 195 196 197 199 200 200 203 204 204 207 210 210 211 213 214 212 213 217 220 222 225 224 221 218 218 219 219 222 224 225 227 230 231 229 226 224 228 236 242 248 252 252 253 255 256 259 264 268 273 286 290 285 289 293 297 304
79 95 89 77 32 16 33 310 337 184 243 251 180 136 121 238 242 243 258 265 255 233 237 245 230 218 217 215 210 203 201 203 201 198 195 189 189 190 192 195 195 193 195 198 199 201 201 203 205 205 207 209 209 209 210 212 215 217 220 223 227 231 230 228 225 225 226 226 229 230 229 231 234 233 230 228 229 233 242 246 250 256 259 261 259 254 253 259 264 267 276 280 280 287 291 290 294
121 130 115 105 100 70 244 265 297 251 267 327 159 146 100 280 256 230 243 262 265 256 248 246 239 225 216 214 212 207 200 200 201 199 195 193 191 191 192 193 193 194 196 197 199 200 201 203 204 206 208 209 210 211 213 217 219 222 224 227 232 236 235 233 232 232 232 233 235 236 236 237 238 237 234 233 234 238 244 249 253 258 262 265 262 256 253 254 259 264 269 274 274 281 288 287 288
165 161 132 137 150 142 189 214 189 220 258 343 284 194 172 232 251 227 240 278 283 278 278 264 258 248 229 214 208 207 206 202 198 198 197 196 194 192 192 193 194 196 197 197 198 199 200 201 203 205 206 208 210 212 216 220 222 223 226 229 235 238 240 238 236 237 238 238 239 240 241 242 243 243 241 241 241 242 246 250 254 259 262 262 258 255 254 253 255 259 265 270 270 274 280 283 287
202 145 102 127 175 143 138 175 171 173 159 47 249 224 208 214 258 272 290 311 303 323 340 353 347 305 219 205 212 207 209 206 199 199 198 198 196 194 194 195 196 198 197 197 198 199 200 201 203 205 207 207 209 212 217 221 223 224 225 230 235 237 238 238 237 238 240 241 242 243 244 245 246 246 245 245 245 246 249 251 253 258 261 260 256 252 252 250 250 255 261 266 268 270 273 279 284
144 78 131 213 157 119 112 144 58 72 125 254 247 249 296 319 278 292 348 354 346 4 10 16 4 1 117 199 221 211 213 210 203 204 200 197 196 196 196 196 197 198 198 199 200 201 202 203 204 205 207 208 209 212 217 221 222 223 225 230 233 234 234 234 235 237 239 241 244 246 249 249 248 248 247 247 249 251 253 252 253 257 258 259 254 250 249 247 246 250 255 261 265 266 268 273 278
112 128 197 196 101 95 103 116 19 39 179 271 311 232 284 324 249 299 3 9 346 349 355 7 15 21 25 290 250 223 218 211 209 213 207 204 203 202 201 200 200 200 199 200 203 204 205 205 206 206 206 208 210 212 216 220 221 222 225 229 230 231 232 232 235 237 239 243 246 249 251 249 247 247 248 248 250 253 254 253 253 255 257 257 254 251 251 250 249 250 253 260 265 267 269 268 271
109 165 173 117 116 143 43 109 140 74 216 287 313 293 262 208 225 268 81 286 306 320 335 1 12 9 356 326 295 248 227 207 197 190 178 193 206 212 209 205 211 213 210 206 204 205 206 207 208 208 210 211 211 213 215 218 220 221 225 229 230 231 231 233 236 238 241 245 248 251 250 246 244 246 248 248 249 251 253 254 255 257 258 258 258 259 260 259 258 256 256 259 263 269 274 271 271
55 64 47 45 125 154 134 119 157 162 161 268 309 333 284 229 220 179 184 221 238 264 312 344 334 321 324 320 313 279 227 187 166 163 159 146 138 142 140 106 73 261 257 238 217 208 206 209 210 210 212 213 212 213 214 217 219 221 225 229 231 232 233 235 237 239 243 247 250 251 249 244 243 246 249 250 251 252 253 253 255 256 256 257 260 264 267 269 266 261 259 260 262 266 271 272 273
80 49 23 21 72 122 143 79 80 127 139 180 261 319 273 251 213 170 189 221 213 210 249 284 290 305 320 317 316 310 278 212 197 185 168 146 146 158 170 176 188 209 226 238 235 223 213 210 211 212 213 213 212 213 214 216 219 221 223 227 230 233 234 236 238 240 244 247 250 250 247 245 246 249 251 254 254 253 252 252 254 254 254 256 259 263 268 269 264 259 258 259 259 258 261 265 268
147 160 177 155 117 119 125 1 321 90 116 163 158 251 271 261 213 183 189 205 217 206 204 246 276 292 312 314 309 309 304 272 252 224 172 160 160 166 176 180 187 204 214 216 223 228 223 217 213 213 214 213 214 215 215 217 219 220 223 226 229 232 235 236 238 240 243 245 247 248 246 246 248 250 253 255 256 256 255 255 257 259 259 258 258 260 264 264 260 255 254 255 255 255 257 259 260
Height
772 773 773 774 773 774 776 777 789 791 793 809 810 808 802 793 793 794 796 794 793 790 784 785 786 788 792 796 798 797 799 801 804 812 813 800 793 796 797 799 800 801 803 804 805 807 808 809 810 811 812 813 814 815 816 817 818 819 820 820 821 821 820 820 820 821 821 821 822 823 823 824 824 824 824 825 825 826 824 825 826 827 829 830 831 832 833 833 834 834 833 833 834 834 834 835 835
772 773 773 774 773 775 780 779 793 800 801 815 811 806 800 791 793 794 794 792 791 787 782 784 785 787 788 789 791 795 799 798 797 799 800 796 797 798 799 800 801 802 804 805 806 808 809 810 811 812 813 813 814 815 816 817 819 820 821 821 821 820 820 820 820 821 821 822 823 824 825 825 825 825 825 826 827 827 825 825 827 828 828 829 831 833 833 834 834 835 834 834 835 836 836 836 837
772 773 773 774 774 776 781 781 796 807 810 818 811 801 796 795 794 791 790 787 787 783 783 785 786 789 790 793 794 798 801 797 796 797 797 798 798 799 800 801 802 804 805 806 807 808 810 811 812 812 813 814 815 816 817 818 819 821 822 821 821 821 820 819 820 822 822 823 824 825 825 826 826 825 826 828 829 829 827 827 829 829 829 830 832 834 834 835 835 835 836 836 836 837 837 837 838
772 773 773 774 777 780 784 789 798 806 813 817 812 800 796 799 794 790 788 786 785 783 784 786 790 789 790 799 797 798 801 798 796 796 798 799 799 799 801 802 803 804 805 807 808 809 810 811 812 813 814 815 816 817 818 819 820 822 822 822 822 822 821 820 821 822 822 824 825 826 826 827 827 826 827 828 831 831 829 829 831 831 830 831 833 835 835 835 835 836 837 837 838 838 838 839 839
772 773 773 773 781 784 785 793 799 806 813 813 811 802 796 797 793 791 788 786 784 784 785 786 793 790 789 796 796 799 801 798 797 796 798 799 799 800 801 803 804 805 806 807 808 810 811 812 813 813 815 816 816 817 818 819 821 822 823 823 823 822 821 821 822 823 823 824 826 827 827 828 828 828 828 829 831 833 833 832 834 835 833 832 833 835 836 837 836 837 837 838 839 839 840 840 840
772 773 772 773 778 779 786 798 805 811 811 807 807 801 796 794 792 791 788 786 783 783 783 786 792 792 795 795 793 797 797 797 797 796 797 798 800 801 802 803 805 806 807 808 809 810 811 813 813 814 816 816 817 818 819 820 822 823 823 824 826 824 823 823 823 823 824 825 826 827 828 828 829 829 829 830 831 834 835 836 837 838 836 834 833 836 837 838 838 838 839 839 840 840 841 841 841
772 774 774 777 779 779 794 806 810 814 805 802 803 798 795 792 791 791 789 788 787 784 784 787 788 792 802 797 795 796 793 795 795 796 797 798 800 801 803 804 805 807 807 809 810 811 812 813 814 816 817 817 818 819 820 821 823 824 822 823 827 826 825 824 824 824 824 825 827 828 829 829 830 830 830 831 832 834 836 837 839 839 839 837 835 837 838 839 840 840 840 840 841 841 842 842 842
772 776 777 783 788 788 802 808 809 811 802 798 798 795 794 791 790 790 791 791 791 789 788 788 785 795 804 797 801 799 793 795 794 797 798 798 801 802 804 805 806 807 808 809 810 812 813 815 816 817 817 819 819 820 820 822 824 825 824 823 825 828 827 827 826 826 826 826 827 828 829 830 831 831 832 832 833 834 836 837 839 840 841 840 838 838 838 840 841 841 841 842 842 842 843 842 843
771 776 779 785 793 798 806 809 808 806 800 797 796 794 792 791 790 790 792 792 790 790 791 789 785 797 804 800 804 799 795 797 796 798 799 800 802 803 805 805 807 807 809 810 811 813 814 816 817 817 818 819 820 820 821 822 824 825 827 824 824 828 828 828 828 827 827 827 827 828 829 831 832 832 833 834 834 835 836 837 838 840 841 842 842 841 840 841 842 843 843 843 843 843 843 843 843
773 776 781 787 795 805 810 811 809 804 800 797 796 794 792 791 789 790 792 793 791 792 792 787 788 797 803 804 805 799 798 798 797 800 801 802 803 804 806 806 808 808 810 810 812 814 816 818 817 818 819 819 820 820 821 822 824 826 827 825 823 827 829 829 829 829 828 827 828 828 829 831 832 833 834 835 836 837 837 837 836 837 840 842 842 843 843 843 843 844 844 844 844 844 844 844 844
779 778 780 791 801 809 813 813 809 803 799 796 795 793 791 791 789 790 792 794 791 793 792 788 795 799 802 806 805 800 799 799 799 801 802 804 805 805 806 808 809 810 811 811 814 816 817 819 818 818 819 820 820 821 822 823 824 825 827 827 824 827 830 830 830 830 829 829 829 829 830 831 832 833 835 836 837 838 839 839 838 837 839 840 841 843 844 843 844 844 844 844 844 844 845 845 846
784 785 783 797 807 810 813 812 808 803 798 797 796 792 790 790 790 792 794 796 793 794 793 790 795 796 803 809 805 801 799 801 801 802 804 805 806 806 807 809 810 811 812 813 815 817 818 820 819 819 820 821 821 821 823 823 824 825 827 828 827 827 830 831 831 831 831 831 830 829 830 831 832 834 835 837 838 839 840 841 841 841 841 841 842 843 844 844 844 844 845 845 845 845 845 846 846
785 788 789 801 808 809 811 810 808 804 801 798 796 791 789 790 791 792 794 797 795 796 793 788 789 792 805 810 803 802 801 802 802 803 805 805 807 807 809 810 811 812 813 814 816 818 820 821 820 819 820 821 821 822 823 824 824 825 827 829 830 830 831 833 833 831 831 831 830 830 831 832 833 834 835 837 838 839 840 841 842 843 843 843 844 844 844 845 845 845 845 845 845 846 846 847 847
782 786 790 803 806 806 809 809 807 806 804 798 794 791 789 790 791 790 793 798 798 795 790 785 786 794 806 809 807 804 801 802 803 804 805 806 808 808 810 811 812 813 814 815 817 819 821 822 822 819 819 821 822 822 823 824 825 826 827 829 832 833 833 834 834 832 831 832 832 832 833 833 834 834 836 837 839 840 841 842 842 843 844 844 844 845 845 845 846 846 846 846 846 847 847 847 847
780 783 789 801 805 806 807 807 806 805 804 797 793 791 790 791 790 790 792 797 797 789 787 786 786 795 804 807 808 803 800 802 803 804 806 807 808 809 811 812 813 813 815 816 818 820 821 823 823 820 820 823 822 822 823 824 825 826 828 829 831 833 834 835 835 834 833 835 835 835 835 834 835 835 836 837 839 840 841 842 842 843 844 844 845 845 846 846 846 846 846 847 847 847 848 848 848
776 782 791 801 806 808 806 804 805 806 802 794 792 791 792 792 788 791 788 789 794 788 787 791 787 792 798 800 800 798 799 802 803 805 806 808 809 810 812 812 814 814 816 817 819 820 821 823 824 821 821 823 823 823 824 824 825 826 828 830 831 833 835 837 836 835 835 835 836 836 836 836 836 836 837 838 839 840 841 841 842 843 844 844 845 845 846 847 847 847 847 847 848 848 848 849 849
775 784 795 803 806 806 803 801 802 801 798 794 792 790 793 794 789 788 785 785 793 792 790 791 788 788 792 794 794 796 800 802 803 805 806 808 809 811 812 813 814 815 816 818 819 821 821 823 825 823 822 823 823 824 824 824 823 825 828 829 832 835 836 837 837 836 835 836 837 837 837 837 836 837 837 838 839 840 841 842 842 843 843 844 845 846 846 847 848 848 848 848 848 848 849 849 849
781 792 800 803 804 800 795 795 794 793 794 794 793 791 792 794 792 787 788 792 794 795 794 792 791 790 791 792 794 797 800 802 804 805 806 808 810 811 812 814 815 815 816 818 820 821 822 823 825 825 824 824 825 825 824 823 823 824 827 828 831 835 836 837 838 838 836 837 838 837 837 837 837 838 838 839 839 841 841 842 842 843 844 844 845 846 847 848 848 848 848 848 849 849 849 850 850
786 796 801 800 798 793 787 788 788 788 792 793 793 792 791 793 792 788 794 800 796 799 799 796 797 796 794 794 796 799 800 802 804 805 806 808 810 811 812 814 815 816 817 818 820 821 822 823 824 824 825 826 826 826 826 825 824 824 825 827 831 835 836 837 839 838 837 837 838 838 838 838 838 839 839 840 840 841 842 842 843 843 844 845 846 846 847 848 849 849 849 849 849 850 850 850 850
787 793 801 797 790 790 787 786 787 787 789 791 793 792 792 792 791 789 795 801 800 802 801 799 802 801 798 797 797 800 801 803 804 805 807 808 810 811 812 813 814 816 817 818 819 821 822 823 823 822 823 825 827 828 828 827 826 826 826 828 833 835 835 837 838 838 837 838 838 838 839 839 839 840 840 841 841 842 842 843 844 844 845 846 847 847 848 848 849 849 849 850 850 850 850 850 850
787 790 797 793 786 790 789 787 787 787 788 790 793 793 793 791 789 791 795 803 805 801 796 794 798 799 798 798 797 800 801 803 804 805 807 808 810 811 812 813 814 816 817 818 820 821 822 823 823 822 821 822 825 827 828 829 829 829 830 832 834 834 835 836 837 837 837 838 838 838 839 840 840 840 841 841 842 843 843 844 845 846 847 847 848 848 848 849 849 849 849 850 850 850 850 850 850
787 789 791 790 787 792 791 788 788 788 789 791 793 793 792 789 790 792 794 801 801 794 790 789 791 793 795 797 798 800 801 802 804 805 806 808 809 811 812 813 815 816 817 819 820 821 822 824 824 823 822 822 823 825 828 830 831 832 833 834 834 834 835 836 836 837 837 838 839 839 840 841 841 841 842 842 843 844 845 846 846 847 848 848 849 849 849 849 849 849 849 849 849 849 849 849 849
788 791 789 790 788 791 792 789 790 790 792 794 793 791 789 791 792 792 792 794 791 786 786 788 790 791 793 796 798 800 801 802 803 804 805 807 809 810 812 813 814 816 817 819 820 821 823 824 825 825 825 824 824 826 828 830 832 833 834 834 834 834 835 836 837 837 838 839 839 840 841 841 842 842 843 844 845 845 846 847 848 848 849 849 849 849 849 849 849 848 848 848 848 848 848 848 848
788 793 791 791 789 791 792 790 791 792 794 794 791 790 791 794 794 793 792 789 786 784 785 788 790 792 794 797 798 799 800 801 802 804 806 807 809 810 812 813 814 815 817 819 820 821 823 824 825 825 826 826 827 827 829 830 832 833 833 833 834 835 835 836 837 838 839 840 840 841 842 842 843 843 844 845 846 847 847 848 849 849 850 850 850 850 850 849 849 848 848 847 847 847 847 847 847
788 793 793 792 792 792 791 790 792 793 793 792 790 793 793 792 791 793 792 787 785 784 786 789 792 794 796 798 799 800 801 802 803 804 806 807 809 810 812 813 814 815 817 818 820 821 822 824 825 826 826 827 828 829 830 831 832 833 833 834 834 835 836 837 838 839 840 841 842 842 843 843 844 845 846 846 847 848 849 849 850 850 850 851 851 850 850 849 849 848 848 847 847 847 847 847 847
790 792 793 793 795 794 791 792 794 794 794 792 793 795 793 789 790 793 789 786 785 784 788 791 793 797 797 798 800 800 801 802 803 804 806 808 809 810 811 812 813 815 816 818 820 821 822 823 824 825 827 827 828 829 830 831 832 833 833 834 835 836 837 838 839 840 841 841 842 843 844 844 845 846 847 847 848 849 850 850 851 851 851 851 851 851 850 850 849 849 848 848 847 847 847 847 847
788 791 793 793 795 794 794 795 795 795 795 793 794 796 793 787 791 796 790 785 785 787 792 793 795 798 798 799 800 800 802 801 803 804 806 807 808 810 811 812 813 814 816 817 819 820 821 823 824 825 827 827 828 829 830 831 832 833 834 835 836 837 838 839 840 840 841 842 843 844 845 845 846 847 848 848 849 850 850 851 851 851 851 851 851 851 851 850 850 850 849 848 848 847 847 847 848
787 789 793 796 796 796 796 797 798 797 797 795 794 795 794 789 793 797 791 787 786 789 795 796 797 799 799 800 800 801 801 802 803 804 805 806 807 808 810 811 812 814 815 816 818 820 821 822 824 825 826 827 828 829 829 831 832 833 834 835 836 837 839 840 840 841 842 843 844 845 846 846 847 848 849 849 850 851 851 852 852 852 852 852 852 852 851 851 851 850 850 849 849 848 848 848 848
788 789 797 802 798 800 802 800 802 803 802 797 794 800 801 796 797 795 789 788 789 792 796 798 799 800 800 800 801 801 801 802 803 803 804 805 806 808 809 810 812 813 815 816 818 819 821 822 823 825 826 827 827 828 829 830 832 833 835 836 837 838 839 840 841 842 843 844 845 846 846 847 848 848 849 850 850 851 852 852 852 852 852 852 852 852 852 852 851 851 851 850 849 848 848 848 848
791 793 799 807 807 808 806 801 803 805 804 797 796 811 813 801 798 792 788 790 792 796 798 799 800 800 801 801 801 802 801 802 802 802 804 805 806 807 808 810 812 813 815 816 818 819 820 822 823 824 825 826 827 828 829 830 832 834 835 836 838 839 840 841 842 843 844 845 845 846 847 847 848 849 850 851 851 852 852 853 853 853 853 853 853 852 852 852 852 851 851 851 850 849 848 848 849
795 800 802 809 815 814 807 802 805 807 802 794 798 815 815 803 798 793 790 791 793 798 800 799 801 801 801 801 801 802 801 801 801 802 804 805 806 807 808 810 812 813 814 816 817 818 820 821 823 824 825 826 827 828 829 831 832 834 835 837 838 840 840 841 842 843 844 845 845 846 847 848 848 849 850 851 852 852 853 853 853 854 854 853 853 853 853 853 852 852 852 851 850 849 849 849 849
800 808 809 811 816 815 807 803 805 807 802 796 800 814 815 805 798 793 791 792 794 798 800 799 801 801 801 801 801 802 801 801 802 803 804 805 806 807 809 810 811 813 814 815 817 818 820 821 822 824 825 826 827 828 829 831 832 834 836 837 839 840 841 842 843 843 844 845 845 846 847 848 849 850 851 851 852 852 853 854 854 854 854 854 854 854 853 853 853 853 852 851 850 849 849 849 849
805 810 813 813 814 815 812 805 802 803 804 801 803 813 817 807 798 794 793 794 796 798 800 800 800 801 801 801 801 802 802 802 803 803 803 804 806 807 809 810 811 813 814 816 817 818 820 821 822 823 825 826 827 828 830 831 833 834 836 837 839 840 841 842 843 843 844 845 845 846 847 848 849 850 851 851 852 853 854 854 855 855 855 855 855 854 854 853 853 853 852 852 851 850 849 849 849
811 812 812 813 814 815 816 810 802 801 805 806 806 810 812 806 800 797 795 794 797 800 800 800 800 800 800 800 801 802 803 803 802 802 803 804 805 807 809 810 811 813 814 816 817 818 820 821 822 824 825 826 827 829 830 832 833 835 836 837 839 840 841 842 843 843 844 845 846 846 847 848 849 850 851 852 852 853 854 855 855 855 856 855 855 855 854 854 854 854 853 852 851 850 850 850 850
808 810 810 812 813 814 816 812 805 803 807 808 809 810 808 805 802 799 797 796 798 800 800 800 799 800 800 800 801 801 802 802 800 801 802 803 805 807 809 810 811 813 814 816 817 819 820 821 822 824 825 826 828 829 831 832 833 835 836 837 839 840 841 842 843 843 844 845 846 846 847 848 849 850 851 852 852 853 854 855 855 856 856 856 855 855 855 855 855 854 853 853 852 851 851 850 850
797 801 803 807 810 813 812 807 803 803 809 811 810 811 808 806 805 801 799 797 798 799 799 800 800 800 800 800 801 801 801 801 799 800 802 803 805 807 808 809 811 813 814 816 817 819 820 822 823 824 826 827 828 829 831 832 833 835 836 837 838 839 841 842 843 843 844 845 846 846 847 848 849 850 851 852 852 853 854 855 855 855 856 856 856 856 856 855 855 855 854 853 853 852 851 851 850
793 797 801 804 808 810 806 803 803 801 808 814 810 811 810 807 807 803 800 799 799 800 800 801 801 801 801 800 800 800 801 799 798 800 802 803 805 807 808 809 811 813 814 816 817 819 820 821 823 824 825 827 828 829 830 832 832 834 835 836 838 839 840 841 842 843 844 845 846 846 847 848 849 850 851 851 852 853 854 854 855 855 855 856 856 856 856 855 855 855 854 854 853 853 852 851 851
793 797 801 807 809 809 805 803 803 800 807 814 811 813 811 807 808 804 801 802 801 799 800 801 800 800 800 799 800 800 800 799 799 800 802 803 805 806 808 809 810 812 813 815 816 818 820 822 823 824 825 827 828 829 830 831 832 833 834 836 837 839 840 841 842 843 843 845 845 846 847 848 849 850 851 851 852 853 853 854 855 855 855 855 856 856 856 856 856 856 855 854 854 853 852 851 851
795 799 803 808 808 808 809 806 804 801 807 814 813 814 809 804 806 805 802 801 800 798 797 797 798 799 800 799 799 800 800 800 800 800 801 803 804 806 807 808 810 811 812 814 816 818 820 821 823 824 825 827 828 829 830 831 833 834 835 836 837 839 840 840 841 842 843 844 845 846 847 848 849 850 850 851 852 852 853 854 854 855 855 855 856 856 856 856 856 856 855 855 854 853 853 852 851
794 799 802 805 805 806 808 809 808 804 806 813 815 816 811 804 803 803 802 800 798 797 796 795 795 797 798 797 797 798 800 801 800 800 800 802 804 805 806 807 809 810 812 814 815 817 819 821 822 823 825 826 828 829 830 832 833 834 836 837 838 838 839 840 841 842 843 844 845 846 847 848 849 849 850 850 851 852 853 854 854 854 855 855 856 856 856 856 856 856 856 855 855 854 853 852 852
794 796 797 797 800 803 803 808 810 808 810 811 816 821 813 806 805 803 802 802 799 798 798 797 796 795 795 796 796 796 796 797 798 799 799 800 802 803 805 806 808 809 811 812 814 816 818 820 821 823 824 826 827 829 830 832 833 835 835 836 837 838 839 839 840 842 843 844 845 846 847 848 848 849 850 850 851 852 853 853 854 854 855 855 855 856 856 856 856 856 856 855 855 854 854 853 853
794 791 788 789 795 802 806 810 813 821 824 812 815 826 817 807 809 806 804 806 804 800 800 799 797 796 796 797 796 796 795 795 795 796 796 798 799 802 803 805 807 808 809 810 812 814 816 819 821 822 824 825 827 828 830 832 833 834 835 835 836 837 838 839 839 840 842 843 844 845 846 847 848 849 849 850 851 852 852 853 853 854 854 855 855 855 856 856 856 856 856 855 855 855 854 854 853
794 784 781 787 794 801 809 811 811 824 828 814 812 826 824 811 807 809 809 809 807 803 802 799 798 797 796 796 795 794 795 795 795 794 795 796 798 800 802 803 805 806 807 809 811 813 815 818 820 821 823 825 826 828 829 831 832 833 834 835 835 836 837 838 838 840 841 842 844 845 846 846 847 848 849 850 850 851 852 852 853 853 854 854 855 855 855 856 856 855 855 855 855 855 854 854 854
790 781 780 789 794 800 808 808 810 818 821 817 816 820 828 821 809 812 814 810 808 806 803 801 798 797 796 794 793 792 793 793 794 795 794 795 796 797 799 800 802 804 806 808 810 812 814 816 818 820 822 824 826 827 828 830 831 832 834 834 835 835 836 837 838 839 840 842 843 844 845 846 846 847 848 849 849 850 851 852 852 853 853 854 854 855 855 855 855 855 855 855 855 855 855 854 854
790 784 784 790 794 800 806 807 811 816 817 824 825 819 830 828 810 812 816 811 810 806 802 801 797 796 795 794 792 790 790 790 791 792 792 793 794 795 796 798 800 803 805 807 808 811 813 815 817 819 821 823 825 826 827 829 830 832 833 834 835 835 836 837 838 839 840 841 842 843 844 845 845 846 847 848 848 849 850 851 852 852 853 853 854 854 854 854 854 854 854 854 854 854 854 854 854
788 786 786 791 796 801 805 808 809 812 817 826 828 822 831 828 809 810 816 810 807 800 797 798 795 794 793 792 791 789 789 789 788 789 789 790 791 793 795 797 799 802 804 805 807 810 812 814 816 818 820 822 824 826 827 828 829 830 832 833 834 835 836 837 838 838 840 840 841 842 843 844 845 845 846 847 847 848 849 850 851 851 852 852 853 853 853 853 854 854 854 854 854 854 853 853 853
782 785 790 796 801 800 804 809 808 817 826 825 826 823 828 829 814 809 810 802 798 795 794 794 793 792 790 789 789 788 788 787 787 787 787 789 790 792 795 797 799 801 803 805 807 809 811 813 815 817 819 821 823 825 826 827 828 829 831 832 833 834 835 836 837 838 838 840 841 841 842 843 844 844 845 846 847 847 848 849 850 850 850 851 851 852 852 853 853 853 853 853 853 852 853 853 853
779 787 794 802 812 811 813 816 815 829 834 825 826 825 828 833 818 804 801 795 793 793 792 792 791 790 787 785 785 785 785 785 785 786 787 788 790 792 795 796 798 800 802 804 805 808 810 812 814 816 818 820 821 823 825 826 827 828 830 831 833 834 834 835 836 837 837 838 840 841 842 842 843 844 844 845 846 847 847 848 849 849 849 850 850 851 851 851 852 852 851 851 851 851 852 852 852
783 790 796 809 828 833 833 835 834 837 831 824 828 826 828 829 810 797 797 792 791 790 788 788 787 787 785 783 782 781 782 783 784 785 785 786 788 790 792 794 796 798 800 802 804 806 808 810 812 814 816 818 820 822 823 824 825 827 829 830 831 833 834 834 835 836 837 838 839 840 841 841 842 843 843 844 845 846 847 847 848 848 848 849 849 850 850 850 850 850 850 850 851 851 851 851 851
786 791 796 808 830 842 847 851 849 840 828 825 827 823 826 822 802 794 795 790 788 787 785 785 783 783 782 781 780 779 780 780 781 783 783 784 785 787 790 792 794 796 797 800 802 804 806 808 810 812 814 816 818 820 822 823 824 825 827 829 830 831 832 833 834 835 836 837 838 839 840 840 841 842 843 843 844 845 846 846 847 847 847 848 848 848 848 849 849 849 850 850 850 850 850 850 850
787 787 789 796 809 822 834 839 838 834 830 829 827 823 824 817 801 793 790 788 788 786 785 783 781 781 779 779 779 779 779 778 777 779 781 781 783 785 788 790 792 794 796 798 800 802 804 806 808 810 812 814 816 818 820 821 822 824 826 827 829 830 831 832 833 834 835 836 837 838 838 839 840 841 842 842 843 844 844 845 845 846 846 847 847 847 847 847 848 848 849 849 849 849 849 849 849
790 787 788 793 792 799 817 828 825 825 830 832 828 820 813 805 795 789 789 789 788 786 785 782 780 779 779 780 780 778 778 777 776 777 778 779 781 783 785 788 790 792 794 796 798 800 802 804 806 807 810 812 814 816 818 819 821 823 824 826 827 829 830 831 832 833 834 835 836 837 837 838 839 840 841 841 842 843 843 844 844 844 845 845 845 845 846 846 847 847 847 848 848 848 848 847 847
787 788 790 792 788 789 810 828 827 826 831 831 826 819 809 803 796 790 790 789 786 786 785 784 783 780 780 781 780 779 778 777 777 777 777 778 780 782 784 786 788 790 792 794 795 797 799 801 803 805 807 810 812 814 816 818 819 821 823 824 826 827 828 829 830 832 833 834 835 836 836 837 838 839 839 840 841 841 842 842 843 843 843 843 844 844 844 844 845 845 845 846 846 846 846 846 846
780 788 788 787 790 791 800 820 832 837 837 830 827 825 818 815 807 795 792 791 788 788 786 785 785 782 782 782 780 779 777 776 777 777 778 779 779 781 782 784 786 787 789 791 793 795 797 799 801 803 805 807 809 811 813 816 817 819 821 823 824 825 827 828 829 831 832 833 834 835 835 836 837 838 838 839 840 840 840 841 841 841 841 842 842 842 842 842 843 843 843 843 844 844 844 844 844
771 779 780 784 796 801 803 816 828 836 841 835 829 831 825 815 806 796 794 794 790 789 788 786 786 784 784 783 780 779 777 776 777 777 778 779 781 785 786 787 789 790 791 791 792 794 796 798 799 801 803 804 806 809 811 813 815 817 819 821 822 824 825 827 828 829 831 831 832 833 834 835 836 837 837 838 838 838 839 839 839 839 840 840 840 840 840 841 841 841 842 842 842 842 842 842 843
772 776 780 785 795 802 806 815 819 824 840 843 832 829 820 805 798 793 792 792 790 789 788 786 787 786 785 784 781 779 778 777 777 776 776 777 779 784 787 789 792 795 796 795 795 795 794 796 798 799 801 803 805 807 809 811 813 815 817 819 821 822 823 825 827 828 829 830 831 832 833 834 835 835 836 836 837 837 837 837 837 837 837 837 838 838 839 840 840 840 840 841 841 841 841 841 841
781 784 788 791 797 803 806 816 821 819 832 842 839 834 814 793 791 790 787 789 787 787 788 786 786 785 784 784 782 780 779 778 775 775 776 776 778 781 782 784 787 789 792 793 795 796 794 795 796 797 799 801 803 805 806 809 810 812 814 816 818 820 821 823 825 826 828 828 830 831 831 833 833 834 834 834 835 835 835 835 835 835 835 836 836 837 837 838 838 838 838 839 839 839 839 839 839
779 781 786 790 795 802 808 821 828 822 824 831 837 836 811 788 789 789 784 786 785 785 787 786 786 785 785 784 782 781 780 778 776 775 776 777 777 779 780 781 783 785 787 789 791 794 795 795 795 796 798 799 801 802 804 806 808 810 812 813 815 817 819 821 823 824 825 827 828 829 830 831 832 832 833 833 833 833 833 833 833 834 834 834 835 835 835 835 835 835 836 836 837 837 837 838 838